Content
SEND FEEDBACK

Daily
Averages
Monthly
Summary
United States of America

EL PASO, TEXAS


Home > North America > United States > Texas
Elevation: 1194 meters     Latitude: 31 48N     Longitude: 106 24W

WEATHER
 
SELECT A DAY
Number of Records: 175,910;   Date Range: 1/1/95 - 12/17/14
 
SHARE

PRINT THIS DATA

[ ← Previous Day ]
WEATHER ALMANAC - 28 JULY, 2013
[ Next Day → ]
[ °F ]   °C
Weather ElementAverageHighLow
Temperature26 °C32.8 °C (3:51 pm)21.1 °C (2:51 am)
Dewpoint16.5 °C17.8 °C (3:51 am)14 °C (4:35 pm)
Humidity57.6 %81 % (4:51 am)35 % (3:51 pm)
Barometer1009.1 hPa1013.9 hPa (4:35 pm)1005.8 hPa (3:51 pm)
Wind Speed15.3 km/h62.9 km/h (4:35 pm)
Wind Gust76 km/h (4:35 pm)
Weather ElementAverage
Visibility15.1 km
Wind DirectionSSE (162.4 °)

Weather ElementTotal
Precipitation0.25 mm
Cooling Degree Days8.6 (Base 18.3)
Growing Degree Days16.9 (Base 10)
Averaged from 25 records on 28 July, 2013
WEATHER CONDITIONS BREAKOUT
WIND DIRECTION BREAKOUT
WEATHER BY HOUR - 28 JULY, 2013
[ °F ]   °C
Local TimeTemperatureDewpointHumidityBarometerVisibilityWind DirectionWind SpeedGust SpeedPrecipitationEventsConditions
1:51 AM21.7 °C17.2 °C75 %1010.8 hPa16.1 kmSW (230°)16.7 km/h0 mmRainLight Rain
2:51 AM21.1 °C17.2 °C78 %1010.2 hPa16.1 kmSW (220°)16.7 km/h0 mmRainLight Rain
3:51 AM21.7 °C17.8 °C78 %1009.5 hPa16.1 kmSSE (150°)9.3 km/h0 mmMostly Cloudy
4:51 AM21.1 °C17.8 °C81 %1009.1 hPa16.1 kmSouth (170°)11.1 km/h0 mmOvercast
5:51 AM21.7 °C16.7 °C73 %1009.5 hPa16.1 kmSouth (180°)16.7 km/hMostly Cloudy
6:51 AM21.1 °C17.2 °C78 %1009.8 hPa16.1 kmSouth (180°)13 km/hOvercast
7:51 AM21.7 °C17.2 °C75 %1010.2 hPa16.1 kmSouth (170°)9.3 km/hOvercast
8:51 AM23.3 °C17.8 °C71 %1010.2 hPa16.1 kmSSE (160°)11.1 km/hMostly Cloudy
9:51 AM25 °C17.8 °C64 %1010.2 hPa16.1 kmVariable9.3 km/hMostly Cloudy
10:51 AM25.6 °C17.2 °C60 %1010.2 hPa16.1 kmSouth (180°)14.8 km/hScattered Clouds
11:51 AM28.3 °C17.2 °C51 %1009.5 hPa16.1 kmVariable11.1 km/hScattered Clouds
12:51 PM30 °C17.2 °C46 %1009.1 hPa16.1 kmSSW (210°)18.5 km/hScattered Clouds
1:51 PM30.6 °C17.2 °C44 %1008.1 hPa16.1 kmSW (220°)13 km/hScattered Clouds
2:51 PM30 °C16.1 °C43 %1007.5 hPa16.1 kmCalmScattered Clouds
3:51 PM32.8 °C15.6 °C35 %1005.8 hPa16.1 kmWest (260°)13 km/hScattered Clouds
4:35 PM29 °C14 °C40 %1013.9 hPa9.7 kmWSW (250°)62.9 km/h76 km/hWidespread Dust
4:38 PM29 °C14 °C40 %1013.9 hPa8 kmWest (260°)48.1 km/h76 km/hWidespread Dust
4:51 PM27.2 °C15.6 °C49 %1007.1 hPa8 kmWSW (250°)38.9 km/h62.9 km/hWidespread Dust
5:51 PM27.2 °C16.1 °C50 %1007.5 hPa16.1 kmNNE (20°)11.1 km/hMostly Cloudy
6:51 PM26.7 °C16.7 °C54 %1007.5 hPa16.1 kmSSW (200°)5.6 km/h0.25 mmRainLight Rain
7:51 PM27.8 °C16.1 °C49 %1007.5 hPa16.1 kmSW (220°)5.6 km/h0 mmMostly Cloudy
8:51 PM27.8 °C14.4 °C44 %1007.8 hPa16.1 kmSW (220°)9.3 km/hMostly Cloudy
9:51 PM28 °C15 °C45 %1008.1 hPa16.1 kmCalmMostly Cloudy
10:51 PM25.6 °C17.8 °C62 %1009.5 hPa16.1 kmSE (140°)7.4 km/hMostly Cloudy
11:51 PM26.1 °C16.1 °C54 %1008.8 hPa16.1 kmSouth (170°)11.1 km/hMostly Cloudy
Hourly data recorded from KELP, located 0 kilometers away from El Paso, Texas







STORIES FROM OUR PARTNERS